This is the latest recevied weather packets stored in our database for station/object W2JBO-5. If no packets are shown the sender has not sent any weather packets the latest 10 day(s).
| Time | Temp. | Humidity | Pressure | Rain* | Wind** | Luminosity | Snow |
|---|---|---|---|---|---|---|---|
| 1777294331 | 22.78° C | 99% | 1013.7 hPa | 0 mm | - | 77 W/m² | - |
| 1777294027 | 22.78° C | 99% | 1013.6 hPa | 0 mm | - | 49 W/m² | - |
| 1777293724 | 22.78° C | 99% | 1013.3 hPa | 0 mm | - | 43 W/m² | - |
| 1777293419 | 22.78° C | 99% | 1013.3 hPa | 0 mm | - | 33 W/m² | - |
| 1777293115 | 22.78° C | 99% | 1013.3 hPa | 0 mm | - | 29 W/m² | - |
| 1777292814 | 22.78° C | 99% | 1013.3 hPa | 0 mm | - | 23 W/m² | - |
| 1777292510 | 22.78° C | 99% | 1013.3 hPa | 0 mm | - | 34 W/m² | - |
| 1777292206 | 22.78° C | 99% | 1013.6 hPa | 0 mm | - | 26 W/m² | - |
| 1777291902 | 22.22° C | 99% | 1013.7 hPa | 0 mm | - | 22 W/m² | - |
| 1777291599 | 22.22° C | 99% | 1013.2 hPa | 0 mm | - | 17 W/m² | - |
| 1777291296 | 22.22° C | 99% | 1013.2 hPa | 0 mm | - | 14 W/m² | - |
| 1777290993 | 22.22° C | 99% | 1013.1 hPa | 0 mm | - | 11 W/m² | - |
| 1777290691 | 22.22° C | 99% | 1013.3 hPa | 0 mm | - | 7 W/m² | - |
| 1777290387 | 22.22° C | 99% | 1013.3 hPa | 0 mm | - | 4 W/m² | - |
| 1777290081 | 22.22° C | 99% | 1013 hPa | 0 mm | - | 3 W/m² | - |
| 1777289779 | 22.22° C | 99% | 1013 hPa | 0 mm | - | 1 W/m² | - |
| 1777289475 | 22.22° C | 99% | 1013.1 hPa | 0 mm | - | 0 W/m² | - |
| 1777289172 | 22.22° C | 99% | 1012.9 hPa | 0 mm | - | 0 W/m² | - |
| 1777288868 | 22.22° C | 99% | 1012.8 hPa | 0 mm | - | 0 W/m² | - |
| 1777288564 | 22.22° C | 99% | 1012.8 hPa | 0 mm | - | 0 W/m² | - |
* Rain latest hour (hover to see other rain measurements)
** Current wind speed in m/s (hover to see current wind gust speed)